Location: Iesi
(43.5167°N, 13.2333°E)
Time: 18:26:44
(UTC+00:00)

Cosmos 1862 Rocket - Pass Details

Date: 08 August 2020
Orbit: 603 x 635 km, 82.5° (Epoch: 23 September)

Event Time Altitude Azimuth Distance (km) Brightness Sun altitude
Rises 19:52:50 0° 358° (N) 2,938 7.7 -15.1°
Reaches altitude 10° 19:55:12 10° 6° (N) 2,022 6.7 -15.5°
Maximum altitude 19:59:26 41° 77° (ENE) 914 4.1 -16.0°
Enters shadow 20:01:02 30° 123° (ESE) 1,134 4.3 -16.3°
